Time,TemperatureF,DewpointF,PressureIn,WindDirection,WindDirectionDegrees,WindSpeedMPH,WindSpeedGustMPH,Humidity,HourlyPrecipIn,Conditions,Clouds,dailyrainin,SoftwareType,DateUTC
2013-01-22 00:05:00,29.0,3.0,-100.00,NW,315,13.0,18.0,33,0.00,,,0.00,,2013-01-22 05:05:00,
2013-01-22 00:12:00,29.0,3.0,-100.00,NW,315,13.0,18.0,33,0.00,,,0.00,,2013-01-22 05:12:00,
2013-01-22 00:23:00,28.0,5.0,-100.00,NW,316,9.0,13.0,36,0.00,,,0.00,,2013-01-22 05:23:00,
2013-01-22 00:33:00,28.0,5.0,-100.00,NW,316,9.0,13.0,36,0.00,,,0.00,,2013-01-22 05:33:00,
2013-01-22 00:43:00,27.0,4.0,-100.00,NW,312,11.0,22.0,37,0.00,,,0.00,,2013-01-22 05:43:00,
2013-01-22 00:53:00,27.0,4.0,-100.00,NW,312,11.0,22.0,37,0.00,,,0.00,,2013-01-22 05:53:00,
2013-01-22 01:02:00,27.0,4.0,-100.00,NW,313,9.0,13.0,36,0.00,,,0.00,,2013-01-22 06:02:00,
2013-01-22 01:12:00,27.0,4.0,-100.00,NW,313,9.0,13.0,36,0.00,,,0.00,,2013-01-22 06:12:00,
2013-01-22 01:22:00,27.0,3.0,-100.00,NW,316,12.0,17.0,36,0.00,,,0.00,,2013-01-22 06:22:00,
2013-01-22 01:33:00,27.0,3.0,-100.00,NW,316,12.0,17.0,36,0.00,,,0.00,,2013-01-22 06:33:00,
2013-01-22 01:43:00,26.0,2.0,-100.00,NW,309,13.0,21.0,35,0.00,,,0.00,,2013-01-22 06:43:00,
2013-01-22 01:53:00,26.0,2.0,-100.00,NW,309,13.0,21.0,35,0.00,,,0.00,,2013-01-22 06:53:00,
2013-01-22 02:02:00,25.0,1.0,-100.00,NW,325,17.0,23.0,34,0.00,,,0.00,,2013-01-22 07:02:00,
2013-01-22 02:12:00,25.0,1.0,-100.00,NW,325,17.0,23.0,34,0.00,,,0.00,,2013-01-22 07:12:00,
2013-01-22 02:22:00,25.0,1.0,-100.00,NW,318,12.0,24.0,35,0.00,,,0.00,,2013-01-22 07:22:00,
2013-01-22 02:33:00,25.0,1.0,-100.00,NW,318,12.0,24.0,35,0.00,,,0.00,,2013-01-22 07:33:00,
2013-01-22 02:42:00,24.0,1.0,-100.00,NW,318,13.0,24.0,37,0.00,,,0.00,,2013-01-22 07:42:00,
2013-01-22 02:53:00,24.0,1.0,-100.00,NW,318,13.0,24.0,37,0.00,,,0.00,,2013-01-22 07:53:00,
2013-01-22 03:02:00,23.0,3.0,-100.00,NW,316,9.0,12.0,41,0.00,,,0.00,,2013-01-22 08:02:00,
2013-01-22 03:12:00,23.0,3.0,-100.00,NW,316,9.0,12.0,41,0.00,,,0.00,,2013-01-22 08:12:00,
2013-01-22 03:22:00,23.0,2.0,-100.00,NW,308,11.0,19.0,40,0.00,,,0.00,,2013-01-22 08:22:00,
2013-01-22 03:33:00,23.0,2.0,-100.00,NW,308,11.0,19.0,40,0.00,,,0.00,,2013-01-22 08:33:00,
2013-01-22 03:43:00,22.0,2.0,-100.00,NW,308,7.0,9.0,41,0.00,,,0.00,,2013-01-22 08:43:00,
2013-01-22 03:53:00,22.0,2.0,-100.00,NW,308,7.0,9.0,41,0.00,,,0.00,,2013-01-22 08:53:00,
2013-01-22 04:02:00,22.0,1.0,-100.00,NW,326,13.0,19.0,41,0.00,,,0.00,,2013-01-22 09:02:00,
2013-01-22 04:12:00,22.0,1.0,-100.00,NW,326,13.0,19.0,41,0.00,,,0.00,,2013-01-22 09:12:00,
2013-01-22 04:23:00,21.0,1.0,-100.00,NW,319,14.0,17.0,40,0.00,,,0.00,,2013-01-22 09:23:00,
2013-01-22 04:33:00,21.0,1.0,-100.00,NW,319,14.0,17.0,40,0.00,,,0.00,,2013-01-22 09:33:00,
2013-01-22 04:43:00,21.0,-1.0,-100.00,NW,318,14.0,18.0,37,0.00,,,0.00,,2013-01-22 09:43:00,
2013-01-22 04:53:00,21.0,-1.0,-100.00,NW,318,14.0,18.0,37,0.00,,,0.00,,2013-01-22 09:53:00,
2013-01-22 05:03:00,20.0,-2.0,-100.00,NW,315,13.0,17.0,38,0.00,,,0.00,,2013-01-22 10:03:00,
2013-01-22 05:12:00,20.0,-2.0,-100.00,NW,315,13.0,17.0,38,0.00,,,0.00,,2013-01-22 10:12:00,
2013-01-22 05:22:00,20.0,-4.0,-100.00,NW,313,15.0,21.0,34,0.00,,,0.00,,2013-01-22 10:22:00,
2013-01-22 05:33:00,20.0,-4.0,-100.00,NW,313,15.0,21.0,34,0.00,,,0.00,,2013-01-22 10:33:00,
2013-01-22 05:42:00,19.0,-1.0,-100.00,NW,320,13.0,19.0,41,0.00,,,0.00,,2013-01-22 10:42:00,
2013-01-22 05:53:00,19.0,-1.0,-100.00,NW,320,13.0,19.0,41,0.00,,,0.00,,2013-01-22 10:53:00,
2013-01-22 06:02:00,18.0,-1.0,-100.00,NW,318,11.0,18.0,41,0.00,,,0.00,,2013-01-22 11:02:00,
2013-01-22 06:12:00,18.0,-1.0,-100.00,NW,318,11.0,18.0,41,0.00,,,0.00,,2013-01-22 11:12:00,
2013-01-22 06:23:00,18.0,-2.0,-100.00,NW,320,10.0,17.0,40,0.00,,,0.00,,2013-01-22 11:23:00,
2013-01-22 06:33:00,18.0,-2.0,-100.00,NW,320,10.0,17.0,40,0.00,,,0.00,,2013-01-22 11:33:00,
2013-01-22 06:43:00,18.0,-5.0,-100.00,NW,309,11.0,18.0,35,0.00,,,0.00,,2013-01-22 11:43:00,
2013-01-22 06:54:00,18.0,-5.0,-100.00,NW,309,11.0,18.0,35,0.00,,,0.00,,2013-01-22 11:54:00,
2013-01-22 07:04:00,17.0,-5.0,-100.00,NW,313,8.0,10.0,37,0.00,,,0.00,,2013-01-22 12:04:00,
2013-01-22 07:13:00,17.0,-5.0,-100.00,NW,313,8.0,10.0,37,0.00,,,0.00,,2013-01-22 12:13:00,
2013-01-22 07:23:00,17.0,-4.0,-100.00,NW,316,8.0,13.0,40,0.00,,,0.00,,2013-01-22 12:23:00,
2013-01-22 07:33:00,17.0,-4.0,-100.00,NW,316,8.0,13.0,40,0.00,,,0.00,,2013-01-22 12:33:00,
2013-01-22 07:43:00,16.0,-3.0,-100.00,NNW,333,7.0,9.0,41,0.00,,,0.00,,2013-01-22 12:43:00,
2013-01-22 07:53:00,16.0,-3.0,-100.00,NNW,333,7.0,9.0,41,0.00,,,0.00,,2013-01-22 12:53:00,
2013-01-22 08:04:00,16.0,-3.0,-100.00,NW,326,6.0,7.0,43,0.00,,,0.00,,2013-01-22 13:04:00,
2013-01-22 08:14:00,16.0,-3.0,-100.00,NW,326,6.0,7.0,43,0.00,,,0.00,,2013-01-22 13:14:00,
2013-01-22 08:23:00,16.0,-3.0,-100.00,NNW,342,7.0,10.0,43,0.00,,,0.00,,2013-01-22 13:23:00,
2013-01-22 08:33:00,16.0,-3.0,-100.00,NNW,342,7.0,10.0,43,0.00,,,0.00,,2013-01-22 13:33:00,
2013-01-22 08:43:00,16.0,-4.0,-100.00,NW,320,9.0,14.0,41,0.00,,,0.00,,2013-01-22 13:43:00,
2013-01-22 08:54:00,16.0,-4.0,-100.00,NW,320,9.0,14.0,41,0.00,,,0.00,,2013-01-22 13:54:00,
2013-01-22 09:03:00,16.0,-4.0,-100.00,NNW,329,7.0,12.0,40,0.00,,,0.00,,2013-01-22 14:03:00,
2013-01-22 09:13:00,16.0,-4.0,-100.00,NNW,329,7.0,12.0,40,0.00,,,0.00,,2013-01-22 14:13:00,
2013-01-22 09:23:00,17.0,-4.0,-100.00,NW,316,11.0,17.0,40,0.00,,,0.00,,2013-01-22 14:23:00,
2013-01-22 09:34:00,17.0,-6.0,-100.00,NW,304,9.0,13.0,36,0.00,,,0.00,,2013-01-22 14:34:00,
2013-01-22 09:44:00,17.0,-6.0,-100.00,NW,304,9.0,13.0,36,0.00,,,0.00,,2013-01-22 14:44:00,
2013-01-22 09:54:00,17.0,-6.0,-100.00,NW,304,9.0,13.0,36,0.00,,,0.00,,2013-01-22 14:54:00,
2013-01-22 10:04:00,17.0,-6.0,-100.00,WNW,302,9.0,14.0,35,0.00,,,0.00,,2013-01-22 15:04:00,
2013-01-22 10:13:00,17.0,-6.0,-100.00,WNW,302,9.0,14.0,35,0.00,,,0.00,,2013-01-22 15:13:00,
2013-01-22 10:24:00,17.0,-5.0,-100.00,NW,319,10.0,14.0,37,0.00,,,0.00,,2013-01-22 15:24:00,
2013-01-22 10:34:00,17.0,-5.0,-100.00,NW,319,10.0,14.0,37,0.00,,,0.00,,2013-01-22 15:34:00,
2013-01-22 10:43:00,18.0,-5.0,-100.00,NW,306,6.0,8.0,36,0.00,,,0.00,,2013-01-22 15:43:00,
2013-01-22 10:54:00,18.0,-5.0,-100.00,NW,306,6.0,8.0,36,0.00,,,0.00,,2013-01-22 15:54:00,
2013-01-22 11:04:00,17.0,-5.0,-100.00,NW,316,9.0,12.0,36,0.00,,,0.00,,2013-01-22 16:04:00,
2013-01-22 11:13:00,17.0,-5.0,-100.00,NW,316,9.0,12.0,36,0.00,,,0.00,,2013-01-22 16:13:00,
2013-01-22 11:24:00,19.0,-5.0,-100.00,NW,312,7.0,11.0,34,0.00,,,0.00,,2013-01-22 16:24:00,
2013-01-22 11:33:00,19.0,-5.0,-100.00,NW,312,7.0,11.0,34,0.00,,,0.00,,2013-01-22 16:33:00,
2013-01-22 11:43:00,19.0,-6.0,-100.00,WNW,294,7.0,11.0,33,0.00,,,0.00,,2013-01-22 16:43:00,
2013-01-22 11:54:00,19.0,-6.0,-100.00,WNW,294,7.0,11.0,33,0.00,,,0.00,,2013-01-22 16:54:00,
2013-01-22 12:04:00,19.0,-3.0,-100.00,WNW,298,6.0,10.0,36,0.00,,,0.00,,2013-01-22 17:04:00,
2013-01-22 12:13:00,19.0,-3.0,-100.00,WNW,298,6.0,10.0,36,0.00,,,0.00,,2013-01-22 17:13:00,
2013-01-22 12:23:00,20.0,-4.0,-100.00,NW,304,7.0,10.0,34,0.00,,,0.00,,2013-01-22 17:23:00,
2013-01-22 12:34:00,20.0,-4.0,-100.00,NW,304,7.0,10.0,34,0.00,,,0.00,,2013-01-22 17:34:00,
2013-01-22 12:44:00,20.0,-4.0,-100.00,NW,304,7.0,10.0,34,0.00,,,0.00,,2013-01-22 17:44:00,
2013-01-22 12:54:00,20.0,-5.0,-100.00,WSW,246,6.0,10.0,32,0.00,,,0.00,,2013-01-22 17:54:00,
2013-01-22 13:04:00,21.0,-5.0,-100.00,WNW,296,5.0,11.0,32,0.00,,,0.00,,2013-01-22 18:04:00,
2013-01-22 13:13:00,21.0,-5.0,-100.00,WNW,296,5.0,11.0,32,0.00,,,0.00,,2013-01-22 18:13:00,
2013-01-22 13:24:00,22.0,-5.0,-100.00,West,267,7.0,13.0,30,0.00,,,0.00,,2013-01-22 18:24:00,
2013-01-22 13:34:00,22.0,-5.0,-100.00,West,267,7.0,13.0,30,0.00,,,0.00,,2013-01-22 18:34:00,
2013-01-22 13:43:00,21.0,-5.0,-100.00,NW,320,13.0,17.0,31,0.00,,,0.00,,2013-01-22 18:43:00,
2013-01-22 13:54:00,21.0,-5.0,-100.00,NW,320,13.0,17.0,31,0.00,,,0.00,,2013-01-22 18:54:00,
2013-01-22 14:04:00,22.0,-5.0,-100.00,NW,308,8.0,14.0,29,0.00,,,0.00,,2013-01-22 19:04:00,
2013-01-22 14:14:00,22.0,-5.0,-100.00,NW,308,8.0,14.0,29,0.00,,,0.00,,2013-01-22 19:14:00,
2013-01-22 14:24:00,22.0,-5.0,-100.00,NW,322,11.0,16.0,29,0.00,,,0.00,,2013-01-22 19:24:00,
2013-01-22 14:34:00,22.0,-5.0,-100.00,NW,322,11.0,16.0,29,0.00,,,0.00,,2013-01-22 19:34:00,
2013-01-22 14:43:00,22.0,-5.0,-100.00,NW,315,9.0,11.0,28,0.00,,,0.00,,2013-01-22 19:43:00,
2013-01-22 14:54:00,22.0,-5.0,-100.00,NW,315,9.0,11.0,28,0.00,,,0.00,,2013-01-22 19:54:00,
2013-01-22 15:03:00,23.0,-4.0,-100.00,NW,309,10.0,15.0,29,0.00,,,0.00,,2013-01-22 20:03:00,
2013-01-22 15:13:00,23.0,-4.0,-100.00,NW,309,10.0,15.0,29,0.00,,,0.00,,2013-01-22 20:13:00,
2013-01-22 15:23:00,23.0,-6.0,-100.00,NW,311,9.0,12.0,27,0.00,,,0.00,,2013-01-22 20:23:00,
2013-01-22 15:33:00,23.0,-6.0,-100.00,NW,311,9.0,12.0,27,0.00,,,0.00,,2013-01-22 20:33:00,
2013-01-22 15:43:00,23.0,-6.0,-100.00,NW,311,9.0,12.0,27,0.00,,,0.00,,2013-01-22 20:43:00,
2013-01-22 16:04:00,24.0,-5.0,-100.00,NW,325,9.0,12.0,27,0.00,,,0.00,,2013-01-22 21:04:00,
2013-01-22 16:13:00,24.0,-5.0,-100.00,NW,325,9.0,12.0,27,0.00,,,0.00,,2013-01-22 21:13:00,
2013-01-22 16:23:00,24.0,-5.0,-100.00,NW,319,10.0,15.0,28,0.00,,,0.00,,2013-01-22 21:23:00,
2013-01-22 16:34:00,24.0,-5.0,-100.00,NW,319,10.0,15.0,28,0.00,,,0.00,,2013-01-22 21:34:00,
2013-01-22 16:43:00,23.0,-8.0,-100.00,NW,309,9.0,12.0,24,0.00,,,0.00,,2013-01-22 21:43:00,
2013-01-22 16:53:00,23.0,-8.0,-100.00,NW,309,9.0,12.0,24,0.00,,,0.00,,2013-01-22 21:53:00,
2013-01-22 17:03:00,23.0,-7.0,-100.00,NW,323,10.0,13.0,25,0.00,,,0.00,,2013-01-22 22:03:00,
2013-01-22 17:13:00,23.0,-7.0,-100.00,NW,323,10.0,13.0,25,0.00,,,0.00,,2013-01-22 22:13:00,
2013-01-22 17:23:00,23.0,-7.0,-100.00,NW,318,8.0,13.0,26,0.00,,,0.00,,2013-01-22 22:23:00,
2013-01-22 17:33:00,23.0,-7.0,-100.00,NW,318,8.0,13.0,26,0.00,,,0.00,,2013-01-22 22:33:00,
2013-01-22 17:43:00,22.0,-7.0,-100.00,NW,320,9.0,12.0,27,0.00,,,0.00,,2013-01-22 22:43:00,
2013-01-22 17:53:00,22.0,-7.0,-100.00,NW,320,9.0,12.0,27,0.00,,,0.00,,2013-01-22 22:53:00,
2013-01-22 18:03:00,22.0,-6.0,-100.00,NW,320,10.0,14.0,29,0.00,,,0.00,,2013-01-22 23:03:00,
2013-01-22 18:12:00,22.0,-6.0,-100.00,NW,320,10.0,14.0,29,0.00,,,0.00,,2013-01-22 23:12:00,
2013-01-22 18:24:00,21.0,-5.0,-100.00,NW,312,6.0,8.0,30,0.00,,,0.00,,2013-01-22 23:24:00,
2013-01-22 18:33:00,21.0,-5.0,-100.00,NW,312,6.0,8.0,30,0.00,,,0.00,,2013-01-22 23:33:00,
2013-01-22 18:43:00,21.0,-5.0,-100.00,NW,319,8.0,12.0,31,0.00,,,0.00,,2013-01-22 23:43:00,
2013-01-22 18:53:00,21.0,-5.0,-100.00,NW,319,8.0,12.0,31,0.00,,,0.00,,2013-01-22 23:53:00,
2013-01-22 19:03:00,21.0,-5.0,-100.00,NW,320,6.0,9.0,32,0.00,,,0.00,,2013-01-23 00:03:00,
2013-01-22 19:13:00,21.0,-5.0,-100.00,NW,320,6.0,9.0,32,0.00,,,0.00,,2013-01-23 00:13:00,
2013-01-22 19:23:00,21.0,-5.0,-100.00,NW,320,6.0,9.0,32,0.00,,,0.00,,2013-01-23 00:23:00,
2013-01-22 19:43:00,20.0,-5.0,-100.00,NW,308,5.0,6.0,33,0.00,,,0.00,,2013-01-23 00:43:00,
2013-01-22 19:53:00,20.0,-5.0,-100.00,NW,308,5.0,6.0,33,0.00,,,0.00,,2013-01-23 00:53:00,
2013-01-22 20:03:00,20.0,-5.0,-100.00,NW,326,6.0,7.0,33,0.00,,,0.00,,2013-01-23 01:03:00,
2013-01-22 20:13:00,20.0,-5.0,-100.00,NW,326,6.0,7.0,33,0.00,,,0.00,,2013-01-23 01:13:00,
2013-01-22 20:23:00,19.0,-4.0,-100.00,NW,320,7.0,9.0,35,0.00,,,0.00,,2013-01-23 01:23:00,
2013-01-22 20:33:00,19.0,-4.0,-100.00,NW,320,7.0,9.0,35,0.00,,,0.00,,2013-01-23 01:33:00,
2013-01-22 20:43:00,20.0,-4.0,-100.00,NW,319,7.0,11.0,35,0.00,,,0.00,,2013-01-23 01:43:00,
2013-01-22 20:53:00,20.0,-4.0,-100.00,NW,319,7.0,11.0,35,0.00,,,0.00,,2013-01-23 01:53:00,
2013-01-22 21:03:00,19.0,-5.0,-100.00,NW,308,7.0,10.0,34,0.00,,,0.00,,2013-01-23 02:03:00,
2013-01-22 21:13:00,19.0,-5.0,-100.00,NW,308,7.0,10.0,34,0.00,,,0.00,,2013-01-23 02:13:00,
2013-01-22 21:23:00,19.0,-5.0,-100.00,NW,322,9.0,11.0,34,0.00,,,0.00,,2013-01-23 02:23:00,
2013-01-22 21:33:00,19.0,-5.0,-100.00,NW,322,9.0,11.0,34,0.00,,,0.00,,2013-01-23 02:33:00,
2013-01-22 21:43:00,19.0,-4.0,-100.00,NW,320,7.0,10.0,35,0.00,,,0.00,,2013-01-23 02:43:00,
2013-01-22 21:54:00,19.0,-4.0,-100.00,NW,320,7.0,10.0,35,0.00,,,0.00,,2013-01-23 02:54:00,
2013-01-22 22:03:00,19.0,-5.0,-100.00,NW,319,7.0,10.0,34,0.00,,,0.00,,2013-01-23 03:03:00,
2013-01-22 22:13:00,19.0,-5.0,-100.00,NW,319,7.0,10.0,34,0.00,,,0.00,,2013-01-23 03:13:00,
2013-01-22 22:23:00,19.0,-5.0,-100.00,NW,315,6.0,8.0,35,0.00,,,0.00,,2013-01-23 03:23:00,
2013-01-22 22:33:00,19.0,-5.0,-100.00,NW,315,6.0,8.0,35,0.00,,,0.00,,2013-01-23 03:33:00,
2013-01-22 22:43:00,19.0,-4.0,-100.00,NW,325,8.0,12.0,35,0.00,,,0.00,,2013-01-23 03:43:00,
2013-01-22 22:53:00,19.0,-4.0,-100.00,NW,325,8.0,12.0,35,0.00,,,0.00,,2013-01-23 03:53:00,
2013-01-22 23:03:00,19.0,-4.0,-100.00,NW,320,9.0,13.0,36,0.00,,,0.00,,2013-01-23 04:03:00,
2013-01-22 23:13:00,19.0,-4.0,-100.00,NW,320,9.0,13.0,36,0.00,,,0.00,,2013-01-23 04:13:00,
2013-01-22 23:23:00,18.0,-5.0,-100.00,NW,305,6.0,10.0,35,0.00,,,0.00,,2013-01-23 04:23:00,
2013-01-22 23:33:00,18.0,-5.0,-100.00,NW,305,6.0,10.0,35,0.00,,,0.00,,2013-01-23 04:33:00,
2013-01-22 23:43:00,18.0,-5.0,-100.00,NW,315,7.0,12.0,35,0.00,,,0.00,,2013-01-23 04:43:00,
2013-01-22 23:53:00,18.0,-5.0,-100.00,NW,315,7.0,12.0,35,0.00,,,0.00,,2013-01-23 04:53:00,